,,,PA_Meas_PMT16A,,PR_Meas_QMR101_102,,RH_Meas_QMH101,,SR_Meas_QMS101,,TA_Meas_QMH101,,GenWind,,GenWind,
date,time,status,PA,status,PR,status,RH,status,SR,status,TA,status,DirAvg,status,SpdAvg,
2011-02-02, 00:00:05,VALID,1002.75,VALID,0,INVALID,163.624,VALID,0.100563,VALID,25.045,VALID,358,VALID,0.465625,
2011-02-02, 00:01:05,VALID,1002.75,VALID,0,INVALID,163.639,VALID,0,VALID,25.0255,VALID,358,VALID,0.333203,
2011-02-02, 00:02:05,VALID,1002.77,VALID,0,INVALID,163.609,VALID,0.100563,VALID,24.9847,VALID,358,VALID,0.277734,
2011-02-02, 00:03:05,VALID,1002.72,VALID,0,INVALID,163.655,VALID,0.100563,VALID,25.006,VALID,358,VALID,0.246094,
2011-02-02, 00:04:05,VALID,1002.73,VALID,0,INVALID,163.632,VALID,0.100563,VALID,24.9866,VALID,358,VALID,0.278906,
2011-02-02, 00:05:05,VALID,1002.69,VALID,0,INVALID,163.624,VALID,0.100563,VALID,24.9457,VALID,354,VALID,0.434766,
2011-02-02, 00:06:05,VALID,1002.66,VALID,0,INVALID,163.639,VALID,0.100563,VALID,24.9652,VALID,354,VALID,0.184766,
2011-02-02, 00:07:05,VALID,1002.66,VALID,0,INVALID,163.617,VALID,0.100563,VALID,24.9866,VALID,354,VALID,0.389062,
2011-02-02, 00:08:05,VALID,1002.63,VALID,0,INVALID,163.632,VALID,0.100563,VALID,24.9671,VALID,354,VALID,0.29375,
2011-02-02, 00:09:05,VALID,1002.59,VALID,0,INVALID,163.639,VALID,0.100563,VALID,24.9866,VALID,354,VALID,0,
2011-02-02, 00:10:05,VALID,1002.54,VALID,0,INVALID,163.632,VALID,0.100563,VALID,24.9866,VALID,354,VALID,0,
2011-02-02, 00:11:05,VALID,1002.58,VALID,0,INVALID,163.632,VALID,0.100563,VALID,24.9866,VALID,354,VALID,0.154687,
2011-02-02, 00:12:05,VALID,1002.58,VALID,0,INVALID,163.639,VALID,0.100563,VALID,25.0255,VALID,354,VALID,0.308203,
2011-02-02, 00:13:05,VALID,1002.57,VALID,0,INVALID,163.632,VALID,0.100563,VALID,25.0255,VALID,344,VALID,0.558203,
2011-02-02, 00:14:05,VALID,1002.6,VALID,0,INVALID,163.617,VALID,0,VALID,25.0469,VALID,349,VALID,0.467187,
2011-02-02, 00:15:05,VALID,1002.61,VALID,0,INVALID,163.617,VALID,0.100563,VALID,25.0041,VALID,349,VALID,0.404687,
2011-02-02, 00:16:05,VALID,1002.59,VALID,0,INVALID,163.632,VALID,0,VALID,24.9866,VALID,349,VALID,0.382422,
2011-02-02, 00:17:05,VALID,1002.61,VALID,0,INVALID,163.632,VALID,0.100563,VALID,24.9866,VALID,349,VALID,0.450781,
2011-02-02, 00:18:05,VALID,1002.63,VALID,0,INVALID,163.617,VALID,0,VALID,24.9476,VALID,349,VALID,0.323828,
2011-02-02, 00:19:05,VALID,1002.64,VALID,0,INVALID,163.647,VALID,0,VALID,24.9263,VALID,349,VALID,0.333203,
2011-02-02, 00:20:05,VALID,1002.63,VALID,0,INVALID,163.632,VALID,0.100563,VALID,24.9476,VALID,349,VALID,0.424609,
2011-02-02, 00:21:05,VALID,1002.59,VALID,0,INVALID,163.647,VALID,0.100563,VALID,24.9263,VALID,349,VALID,0.445313,
2011-02-02, 00:22:05,VALID,1002.57,VALID,0,INVALID,163.632,VALID,0,VALID,24.9476,VALID,349,VALID,0.3125,
2011-02-02, 00:23:05,VALID,1002.58,VALID,0,INVALID,163.624,VALID,0,VALID,24.9068,VALID,349,VALID,0.430469,
2011-02-02, 00:24:05,VALID,1002.57,VALID,0,INVALID,163.662,VALID,0,VALID,24.9087,VALID,349,VALID,0.405859,
2011-02-02, 00:25:05,VALID,1002.59,VALID,0,INVALID,163.639,VALID,0,VALID,24.8697,VALID,349,VALID,0.383984,
2011-02-02, 00:26:05,VALID,1002.57,VALID,0,INVALID,163.624,VALID,0,VALID,24.8892,VALID,349,VALID,0.559766,
2011-02-02, 00:27:05,VALID,1002.52,VALID,0,INVALID,163.639,VALID,0,VALID,24.93,VALID,349,VALID,0.494141,
2011-02-02, 00:28:05,VALID,1002.5,VALID,0,INVALID,163.639,VALID,0,VALID,24.9476,VALID,348,VALID,0.430859,
2011-02-02, 00:29:05,VALID,1002.48,VALID,0,INVALID,163.655,VALID,0,VALID,24.9476,VALID,348,VALID,0.469922,
2011-02-02, 00:30:05,VALID,1002.48,VALID,0,INVALID,163.655,VALID,0,VALID,24.9476,VALID,348,VALID,0.439453,
2011-02-02, 00:31:05,VALID,1002.48,VALID,0,INVALID,163.624,VALID,0,VALID,24.9282,VALID,348,VALID,0.578906,
2011-02-02, 00:32:05,VALID,1002.5,VALID,0,INVALID,163.639,VALID,0,VALID,24.9476,VALID,351,VALID,0.562891,
2011-02-02, 00:33:05,VALID,1002.48,VALID,0,INVALID,163.632,VALID,0,VALID,24.9671,VALID,350,VALID,0.489062,
2011-02-02, 00:34:05,VALID,1002.47,VALID,0,INVALID,163.639,VALID,0,VALID,24.9282,VALID,350,VALID,0.549609,
2011-02-02, 00:35:05,VALID,1002.46,VALID,0,INVALID,163.639,VALID,0.100563,VALID,24.9282,VALID,351,VALID,0.502734,
2011-02-02, 00:36:05,VALID,1002.44,VALID,0,INVALID,163.639,VALID,0,VALID,24.8892,VALID,351,VALID,0.548437,
2011-02-02, 00:37:05,VALID,1002.43,VALID,0,INVALID,163.617,VALID,0,VALID,24.8892,VALID,351,VALID,0.500391,
2011-02-02, 00:38:05,VALID,1002.41,VALID,0,INVALID,163.639,VALID,0.100563,VALID,24.8892,VALID,351,VALID,0.453125,
2011-02-02, 00:39:05,VALID,1002.4,VALID,0,INVALID,163.647,VALID,0,VALID,24.8892,VALID,347,VALID,0.442187,
2011-02-02, 00:40:05,VALID,1002.43,VALID,0,INVALID,163.639,VALID,0,VALID,24.9068,VALID,312,VALID,0.444531,
2011-02-02, 00:41:05,VALID,1002.37,VALID,0,INVALID,163.655,VALID,0,VALID,24.9476,VALID,350,VALID,0.767969,
2011-02-02, 00:42:05,VALID,1002.35,VALID,0,INVALID,163.639,VALID,0,VALID,24.9885,VALID,354,VALID,0.883594,
2011-02-02, 00:43:05,VALID,1002.33,VALID,0,INVALID,163.639,VALID,0,VALID,25.006,VALID,354,VALID,0.552734,
2011-02-02, 00:44:05,VALID,1002.29,VALID,0,INVALID,163.632,VALID,0.100563,VALID,25.0255,VALID,354,VALID,0.317969,
2011-02-02, 00:45:05,VALID,1002.29,VALID,0,INVALID,163.617,VALID,0,VALID,25.006,VALID,354,VALID,0.238672,
2011-02-02, 00:46:05,VALID,1002.24,VALID,0,INVALID,163.639,VALID,0.100563,VALID,25.0255,VALID,354,VALID,0.309766,
2011-02-02, 00:47:05,VALID,1002.22,VALID,0,INVALID,163.647,VALID,0,VALID,25.0255,VALID,330,VALID,0.595703,
2011-02-02, 00:48:05,VALID,1002.22,VALID,0,INVALID,163.639,VALID,0.100563,VALID,25.045,VALID,347,VALID,0.696094,
2011-02-02, 00:49:05,VALID,1002.22,VALID,0,INVALID,163.601,VALID,0.100563,VALID,25.0236,VALID,346,VALID,0.422656,
2011-02-02, 00:50:05,VALID,1002.24,VALID,0,INVALID,163.678,VALID,0,VALID,25.0041,VALID,346,VALID,0.406641,
2011-02-02, 00:51:05,VALID,1002.21,VALID,0,INVALID,163.647,VALID,0,VALID,24.9866,VALID,346,VALID,0.551562,
2011-02-02, 00:52:05,VALID,1002.27,VALID,0,INVALID,163.632,VALID,0.100563,VALID,24.9671,VALID,346,VALID,0.371484,
2011-02-02, 00:53:05,VALID,1002.21,VALID,0,INVALID,163.647,VALID,0,VALID,24.9476,VALID,344,VALID,0.430078,
2011-02-02, 00:54:05,VALID,1002.21,VALID,0,INVALID,163.632,VALID,0.100563,VALID,24.969,VALID,350,VALID,0.355469,
2011-02-02, 00:55:05,VALID,1002.19,VALID,0,INVALID,163.632,VALID,0,VALID,24.9671,VALID,350,VALID,0.447266,
2011-02-02, 00:56:05,VALID,1002.17,VALID,0,INVALID,163.639,VALID,0,VALID,24.9866,VALID,350,VALID,0.408203,
2011-02-02, 00:57:05,VALID,1002.16,VALID,0,INVALID,163.624,VALID,0,VALID,24.9671,VALID,347,VALID,0.599609,
2011-02-02, 00:58:05,VALID,1002.12,VALID,0,INVALID,163.662,VALID,0,VALID,24.9671,VALID,349,VALID,0.683594,
2011-02-02, 00:59:05,VALID,1002.09,VALID,0,INVALID,163.624,VALID,0.100563,VALID,24.9866,VALID,356,VALID,0.610156,
2011-02-02, 01:00:05,VALID,1002.1,VALID,0,INVALID,163.617,VALID,0,VALID,24.9652,VALID,356,VALID,0.622656,
2011-02-02, 01:01:05,VALID,1002.04,VALID,0,INVALID,163.632,VALID,0,VALID,24.9671,VALID,356,VALID,0.573828,
2011-02-02, 01:02:05,VALID,1002.04,VALID,0,INVALID,163.647,VALID,0,VALID,24.9866,VALID,344,VALID,0.920313,
2011-02-02, 01:03:05,VALID,1002.03,VALID,0,INVALID,163.617,VALID,0,VALID,24.9866,VALID,356,VALID,0.955078,
2011-02-02, 01:04:05,VALID,1002.02,VALID,0,INVALID,163.67,VALID,0.100563,VALID,24.9866,VALID,346,VALID,0.777734,
2011-02-02, 01:05:05,VALID,1002.02,VALID,0,INVALID,163.647,VALID,0,VALID,25.006,VALID,343,VALID,0.791797,
2011-02-02, 01:06:05,VALID,1002.01,VALID,0,INVALID,163.647,VALID,0,VALID,24.9847,VALID,344,VALID,0.444922,
2011-02-02, 01:07:05,VALID,1002.05,VALID,0,INVALID,163.647,VALID,0,VALID,25.006,VALID,349,VALID,0.513672,
2011-02-02, 01:08:05,VALID,1002.05,VALID,0,INVALID,163.632,VALID,0,VALID,24.9866,VALID,348,VALID,0.730469,
2011-02-02, 01:09:05,VALID,1002.08,VALID,0,INVALID,163.639,VALID,0,VALID,24.9847,VALID,343,VALID,0.64375,
2011-02-02, 01:10:05,VALID,1002.12,VALID,0,INVALID,163.639,VALID,0,VALID,25.006,VALID,355,VALID,0.558203,
2011-02-02, 01:11:05,VALID,1002.11,VALID,0,INVALID,163.609,VALID,0,VALID,25.0041,VALID,353,VALID,0.425,
2011-02-02, 01:12:04,VALID,1002.14,VALID,0,INVALID,163.662,VALID,0,VALID,25.006,VALID,356,VALID,0.554297,
2011-02-02, 01:13:04,VALID,1002.16,VALID,0,INVALID,163.639,VALID,0,VALID,25.006,VALID,16,VALID,0.570313,
2011-02-02, 01:14:04,VALID,1002.15,VALID,0,INVALID,163.647,VALID,0,VALID,25.0255,VALID,19,VALID,0,
2011-02-02, 01:15:04,VALID,1002.15,VALID,0,INVALID,163.624,VALID,0,VALID,25.0274,VALID,22,VALID,0.326172,
2011-02-02, 01:16:04,VALID,1002.18,VALID,0,INVALID,163.624,VALID,0,VALID,25.006,VALID,22,VALID,0.0808594,
2011-02-02, 01:17:04,VALID,1002.16,VALID,0,INVALID,163.639,VALID,0,VALID,24.9847,VALID,22,VALID,0,
2011-02-02, 01:18:04,VALID,1002.17,VALID,0,INVALID,163.655,VALID,0,VALID,25.006,VALID,22,VALID,0,
2011-02-02, 01:19:04,VALID,1002.12,VALID,0,INVALID,163.632,VALID,0,VALID,25.006,VALID,22,VALID,0,
2011-02-02, 01:20:04,VALID,1002.13,VALID,0,INVALID,163.617,VALID,0.100563,VALID,25.006,VALID,22,VALID,0,
2011-02-02, 01:21:04,VALID,1002.09,VALID,0,INVALID,163.647,VALID,0,VALID,25.006,VALID,4,VALID,0.651563,
2011-02-02, 01:22:04,VALID,1002.1,VALID,0,INVALID,163.624,VALID,0,VALID,25.0255,VALID,351,VALID,0.625781,
2011-02-02, 01:23:04,VALID,1002.08,VALID,0,INVALID,163.647,VALID,0.100563,VALID,25.0255,VALID,352,VALID,0.55,
2011-02-02, 01:24:04,VALID,1002.06,VALID,0,INVALID,163.624,VALID,0,VALID,25.0041,VALID,352,VALID,0.460938,
2011-02-02, 01:25:04,VALID,1002.04,VALID,0,INVALID,163.632,VALID,0,VALID,25.0255,VALID,352,VALID,0.480078,
2011-02-02, 01:26:04,VALID,1002.04,VALID,0,INVALID,163.624,VALID,0,VALID,25.0274,VALID,352,VALID,0.504297,
2011-02-02, 01:27:04,VALID,1002.01,VALID,0,INVALID,163.639,VALID,0.100563,VALID,25.006,VALID,350,VALID,0.274609,
2011-02-02, 01:28:04,VALID,1001.97,VALID,0,INVALID,163.624,VALID,0,VALID,25.0274,VALID,350,VALID,0.192969,
2011-02-02, 01:29:04,VALID,1001.95,VALID,0,INVALID,163.632,VALID,0,VALID,25.0274,VALID,350,VALID,0.386719,
2011-02-02, 01:30:04,VALID,1001.91,VALID,0,INVALID,163.632,VALID,0,VALID,25.006,VALID,348,VALID,0.544141,
2011-02-02, 01:31:04,VALID,1001.86,VALID,0,INVALID,163.632,VALID,0,VALID,25.0079,VALID,351,VALID,0.701172,
2011-02-02, 01:32:04,VALID,1001.87,VALID,0,INVALID,163.624,VALID,0,VALID,24.9847,VALID,353,VALID,0.715625,
2011-02-02, 01:33:04,VALID,1001.83,VALID,0,INVALID,163.632,VALID,0,VALID,25.006,VALID,354,VALID,0.200781,
2011-02-02, 01:34:04,VALID,1001.86,VALID,0,INVALID,163.601,VALID,0,VALID,25.0469,VALID,354,VALID,0.458594,
2011-02-02, 01:35:04,VALID,1001.84,VALID,0,INVALID,163.639,VALID,0,VALID,25.045,VALID,353,VALID,0.403125,
2011-02-02, 01:36:04,VALID,1001.84,VALID,0,INVALID,163.617,VALID,0,VALID,25.045,VALID,337,VALID,0.187109,
2011-02-02, 01:37:04,VALID,1001.82,VALID,0,INVALID,163.639,VALID,0,VALID,25.0255,VALID,340,VALID,0.376953,
2011-02-02, 01:38:04,VALID,1001.81,VALID,0,INVALID,163.647,VALID,0,VALID,25.0663,VALID,11,VALID,0.268359,
2011-02-02, 01:39:04,VALID,1001.82,VALID,0,INVALID,163.624,VALID,0,VALID,25.0644,VALID,351,VALID,0.8375,
2011-02-02, 01:40:04,VALID,1001.79,VALID,0,INVALID,163.647,VALID,0,VALID,25.0663,VALID,351,VALID,1.01484,
2011-02-02, 01:41:04,VALID,1001.77,VALID,0,INVALID,163.609,VALID,0,VALID,25.0255,VALID,350,VALID,0.538672,
2011-02-02, 01:42:04,VALID,1001.75,VALID,0,INVALID,163.617,VALID,0,VALID,25.045,VALID,357,VALID,0.562109,
2011-02-02, 01:43:04,VALID,1001.71,VALID,0,INVALID,163.632,VALID,0,VALID,25.045,VALID,352,VALID,0.239844,
2011-02-02, 01:44:04,VALID,1001.71,VALID,0,INVALID,163.632,VALID,0.100563,VALID,25.0255,VALID,344,VALID,0.475,
2011-02-02, 01:45:04,VALID,1001.66,VALID,0,INVALID,163.601,VALID,0.100563,VALID,25.0255,VALID,350,VALID,0.730859,
2011-02-02, 01:46:04,VALID,1001.64,VALID,0,INVALID,163.609,VALID,0,VALID,25.0255,VALID,357,VALID,0.932031,
2011-02-02, 01:47:04,VALID,1001.59,VALID,0,INVALID,163.655,VALID,0,VALID,25.0274,VALID,347,VALID,0.966797,
2011-02-02, 01:48:04,VALID,1001.57,VALID,0,INVALID,163.601,VALID,0.100563,VALID,25.006,VALID,349,VALID,0.754687,
2011-02-02, 01:49:04,VALID,1001.51,VALID,0,INVALID,163.624,VALID,0,VALID,25.0274,VALID,343,VALID,0.886719,
2011-02-02, 01:50:04,VALID,1001.5,VALID,0,INVALID,163.624,VALID,0,VALID,25.006,VALID,353,VALID,1.24453,
2011-02-02, 01:51:04,VALID,1001.44,VALID,0,INVALID,163.601,VALID,0,VALID,25.0255,VALID,352,VALID,1.02344,
2011-02-02, 01:52:04,VALID,1001.39,VALID,0,INVALID,163.624,VALID,0.100563,VALID,25.045,VALID,353,VALID,1.12109,
2011-02-02, 01:53:04,VALID,1001.41,VALID,0,INVALID,163.655,VALID,0.100563,VALID,25.0644,VALID,351,VALID,0.983203,
2011-02-02, 01:54:04,VALID,1001.37,VALID,0,INVALID,163.639,VALID,0,VALID,25.0839,VALID,263,VALID,0.548828,
2011-02-02, 01:55:04,VALID,1001.35,VALID,0,INVALID,163.624,VALID,0,VALID,25.0839,VALID,296,VALID,0.671484,
2011-02-02, 01:56:04,VALID,1001.35,VALID,0,INVALID,163.647,VALID,0,VALID,25.1053,VALID,4,VALID,0.783984,
2011-02-02, 01:57:04,VALID,1001.33,VALID,0,INVALID,163.624,VALID,0,VALID,25.0839,VALID,304,VALID,0.449219,
2011-02-02, 01:58:04,VALID,1001.36,VALID,0,INVALID,163.624,VALID,0,VALID,25.1034,VALID,275,VALID,0.357812,
2011-02-02, 01:59:04,VALID,1001.35,VALID,0,INVALID,163.624,VALID,0,VALID,25.1034,VALID,10,VALID,0.854688,
2011-02-02, 02:00:04,VALID,1001.39,VALID,0,INVALID,163.624,VALID,0,VALID,25.1034,VALID,278,VALID,0.459375,
2011-02-02, 02:01:04,VALID,1001.36,VALID,0,INVALID,163.639,VALID,0,VALID,25.1034,VALID,272,VALID,0.168359,
2011-02-02, 02:02:04,VALID,1001.39,VALID,0,INVALID,163.639,VALID,0,VALID,25.0839,VALID,348,VALID,0.737109,
2011-02-02, 02:03:04,VALID,1001.39,VALID,0,INVALID,163.632,VALID,0.100563,VALID,25.1034,VALID,350,VALID,0.617578,
2011-02-02, 02:04:04,VALID,1001.37,VALID,0,INVALID,163.632,VALID,0,VALID,25.0839,VALID,352,VALID,0.549609,
2011-02-02, 02:05:04,VALID,1001.39,VALID,0,INVALID,163.639,VALID,0,VALID,25.0839,VALID,342,VALID,0.950391,
2011-02-02, 02:06:04,VALID,1001.39,VALID,0,INVALID,163.624,VALID,0,VALID,25.0858,VALID,354,VALID,0.682813,
2011-02-02, 02:07:04,VALID,1001.36,VALID,0,INVALID,163.639,VALID,0,VALID,25.0839,VALID,358,VALID,0.410937,
2011-02-02, 02:08:04,VALID,1001.37,VALID,0,INVALID,163.609,VALID,0,VALID,25.0839,VALID,353,VALID,0.705078,
2011-02-02, 02:09:04,VALID,1001.35,VALID,0,INVALID,163.655,VALID,0.100563,VALID,25.1034,VALID,336,VALID,0.644531,
2011-02-02, 02:10:04,VALID,1001.32,VALID,0,INVALID,163.624,VALID,0,VALID,25.1034,VALID,338,VALID,0.441016,
2011-02-02, 02:11:04,VALID,1001.28,VALID,0,INVALID,163.639,VALID,0.100563,VALID,25.1034,VALID,346,VALID,1.03477,
2011-02-02, 02:12:04,VALID,1001.26,VALID,0,INVALID,163.617,VALID,0,VALID,25.1423,VALID,356,VALID,0.547656,
2011-02-02, 02:13:04,VALID,1001.24,VALID,0,INVALID,163.609,VALID,0,VALID,25.1618,VALID,359,VALID,0.423438,
2011-02-02, 02:14:04,VALID,1001.24,VALID,0,INVALID,163.639,VALID,0,VALID,25.1618,VALID,356,VALID,0.510156,
2011-02-02, 02:15:04,VALID,1001.21,VALID,0,INVALID,163.624,VALID,0,VALID,25.1423,VALID,342,VALID,0.694922,
2011-02-02, 02:16:04,VALID,1001.2,VALID,0,INVALID,163.601,VALID,0,VALID,25.1618,VALID,1,VALID,0.740234,
2011-02-02, 02:17:04,VALID,1001.22,VALID,0,INVALID,163.617,VALID,0.100563,VALID,25.1599,VALID,348,VALID,1.03437,
2011-02-02, 02:18:04,VALID,1001.26,VALID,0,INVALID,163.647,VALID,0,VALID,25.2806,VALID,265,VALID,0.246484,
2011-02-02, 02:19:04,VALID,1001.29,VALID,0,INVALID,163.639,VALID,0,VALID,25.2981,VALID,328,VALID,0.421484,
2011-02-02, 02:20:04,VALID,1001.25,VALID,0,INVALID,163.639,VALID,0,VALID,25.3176,VALID,7,VALID,0.860156,
2011-02-02, 02:21:04,VALID,1001.25,VALID,0,INVALID,163.624,VALID,0,VALID,25.3176,VALID,1,VALID,0.745313,
2011-02-02, 02:22:04,VALID,1001.25,VALID,0,INVALID,163.632,VALID,0,VALID,25.3565,VALID,340,VALID,0.745703,
2011-02-02, 02:23:04,VALID,1001.19,VALID,0,INVALID,163.624,VALID,0,VALID,25.376,VALID,350,VALID,0.892578,
2011-02-02, 02:24:04,VALID,1001.19,VALID,0,INVALID,163.594,VALID,0.100563,VALID,25.3565,VALID,348,VALID,1.02188,
2011-02-02, 02:25:04,VALID,1001.19,VALID,0,INVALID,163.594,VALID,0,VALID,25.3779,VALID,348,VALID,1.17305,
2011-02-02, 02:26:04,VALID,1001.16,VALID,0,INVALID,163.617,VALID,0,VALID,25.3351,VALID,329,VALID,1.03789,
2011-02-02, 02:27:04,VALID,1001.1,VALID,0,INVALID,163.586,VALID,0,VALID,25.337,VALID,358,VALID,0.95625,
2011-02-02, 02:28:04,VALID,1001.11,VALID,0,INVALID,163.624,VALID,0,VALID,25.3157,VALID,349,VALID,0.995313,
2011-02-02, 02:29:04,VALID,1001.08,VALID,0,INVALID,163.609,VALID,0,VALID,25.3176,VALID,345,VALID,0.387891,
2011-02-02, 02:30:04,VALID,1001.03,VALID,0,INVALID,163.617,VALID,0,VALID,25.3176,VALID,310,VALID,0.722266,
2011-02-02, 02:31:04,VALID,1000.99,VALID,0,INVALID,163.624,VALID,0,VALID,25.3176,VALID,348,VALID,0.921484,
2011-02-02, 02:32:04,VALID,1000.98,VALID,0,INVALID,163.639,VALID,0,VALID,25.2981,VALID,302,VALID,0.526953,
2011-02-02, 02:33:04,VALID,1000.96,VALID,0,INVALID,163.624,VALID,0,VALID,25.3176,VALID,342,VALID,0.655469,
2011-02-02, 02:34:04,VALID,1000.93,VALID,0,INVALID,163.617,VALID,0,VALID,25.339,VALID,337,VALID,0.763281,
2011-02-02, 02:35:04,VALID,1000.94,VALID,0,INVALID,163.624,VALID,0,VALID,25.3176,VALID,339,VALID,0.819922,
2011-02-02, 02:36:04,VALID,1000.94,VALID,0,INVALID,163.632,VALID,0,VALID,25.337,VALID,351,VALID,1.20664,
2011-02-02, 02:37:04,VALID,1000.9,VALID,0,INVALID,163.617,VALID,0.100563,VALID,25.3176,VALID,355,VALID,1.06758,
2011-02-02, 02:38:04,VALID,1000.91,VALID,0,INVALID,163.601,VALID,0,VALID,25.337,VALID,351,VALID,0.864453,
2011-02-02, 02:39:04,VALID,1000.9,VALID,0,INVALID,163.617,VALID,0,VALID,25.337,VALID,354,VALID,1.09414,
2011-02-02, 02:40:04,VALID,1000.89,VALID,0,INVALID,163.617,VALID,0,VALID,25.3779,VALID,350,VALID,0.744922,
2011-02-02, 02:41:04,VALID,1000.89,VALID,0,INVALID,163.617,VALID,0,VALID,25.3779,VALID,350,VALID,0.331641,
2011-02-02, 02:42:04,VALID,1000.87,VALID,0,INVALID,163.617,VALID,0,VALID,25.3779,VALID,345,VALID,0.820313,
2011-02-02, 02:43:04,VALID,1000.88,VALID,0,INVALID,163.601,VALID,0.100563,VALID,25.3779,VALID,345,VALID,0.410547,
2011-02-02, 02:44:04,VALID,1000.92,VALID,0,INVALID,163.578,VALID,0,VALID,25.3779,VALID,353,VALID,0.829687,
2011-02-02, 02:45:04,VALID,1000.92,VALID,0,INVALID,163.624,VALID,0.100563,VALID,25.3565,VALID,346,VALID,0.980078,
2011-02-02, 02:46:04,VALID,1000.97,VALID,0,INVALID,163.632,VALID,0,VALID,25.3584,VALID,3,VALID,0.508984,
2011-02-02, 02:47:04,VALID,1000.96,VALID,0,INVALID,163.624,VALID,0,VALID,25.337,VALID,356,VALID,1.3832,
2011-02-02, 02:48:04,VALID,1000.98,VALID,0,INVALID,163.617,VALID,0.100563,VALID,25.337,VALID,351,VALID,0.625391,
2011-02-02, 02:49:04,VALID,1000.99,VALID,0,INVALID,163.624,VALID,0,VALID,25.339,VALID,358,VALID,0.855859,
2011-02-02, 02:50:04,VALID,1001.02,VALID,0,INVALID,163.617,VALID,0,VALID,25.3176,VALID,341,VALID,0.795703,
2011-02-02, 02:51:04,VALID,1000.98,VALID,0,INVALID,163.609,VALID,0,VALID,25.2981,VALID,343,VALID,1.14141,
2011-02-02, 02:52:04,VALID,1001,VALID,0,INVALID,163.639,VALID,0.100563,VALID,25.3195,VALID,1,VALID,0.948047,
2011-02-02, 02:53:04,VALID,1000.99,VALID,0,INVALID,163.632,VALID,0.100563,VALID,25.2786,VALID,342,VALID,0.537109,
2011-02-02, 02:54:04,VALID,1001.02,VALID,0,INVALID,163.617,VALID,0.100563,VALID,25.2592,VALID,347,VALID,0.992969,
2011-02-02, 02:55:04,VALID,1001,VALID,0,INVALID,163.586,VALID,0,VALID,25.2397,VALID,350,VALID,1.16484,
2011-02-02, 02:56:04,VALID,1000.97,VALID,0,INVALID,163.639,VALID,0,VALID,25.2397,VALID,352,VALID,0.995703,
2011-02-02, 02:57:04,VALID,1000.93,VALID,0,INVALID,163.601,VALID,0,VALID,25.2202,VALID,351,VALID,1.51797,
2011-02-02, 02:58:04,VALID,1000.96,VALID,0,INVALID,163.632,VALID,0,VALID,25.2202,VALID,355,VALID,1.31836,
2011-02-02, 02:59:04,VALID,1000.95,VALID,0,INVALID,163.601,VALID,0,VALID,25.2007,VALID,332,VALID,1.2207,
2011-02-02, 03:00:04,VALID,1000.98,VALID,0,INVALID,163.624,VALID,0,VALID,25.2202,VALID,344,VALID,0.908984,
2011-02-02, 03:01:04,VALID,1000.96,VALID,0,INVALID,163.594,VALID,0,VALID,25.1988,VALID,339,VALID,1.12148,
2011-02-02, 03:02:04,VALID,1000.97,VALID,0,INVALID,163.601,VALID,0.100563,VALID,25.2221,VALID,327,VALID,0.933594,
2011-02-02, 03:03:04,VALID,1000.99,VALID,0,INVALID,163.632,VALID,0,VALID,25.2416,VALID,347,VALID,0.828906,
2011-02-02, 03:04:04,VALID,1001.04,VALID,0,INVALID,163.609,VALID,0,VALID,25.2007,VALID,354,VALID,1.07422,
2011-02-02, 03:05:04,VALID,1001.09,VALID,0,INVALID,163.632,VALID,0.100563,VALID,25.2007,VALID,2,VALID,0.877344,
2011-02-02, 03:06:04,VALID,1001.09,VALID,0,INVALID,163.617,VALID,0,VALID,25.2007,VALID,347,VALID,0.873828,
2011-02-02, 03:07:04,VALID,1001.14,VALID,0,INVALID,163.624,VALID,0.100563,VALID,25.2007,VALID,342,VALID,0.728906,
2011-02-02, 03:08:04,VALID,1001.13,VALID,0,INVALID,163.617,VALID,0,VALID,25.2007,VALID,351,VALID,1.24375,
2011-02-02, 03:09:04,VALID,1001.17,VALID,0,INVALID,163.578,VALID,0,VALID,25.2007,VALID,4,VALID,0.932422,
2011-02-02, 03:10:04,VALID,1001.18,VALID,0,INVALID,163.617,VALID,0,VALID,25.2007,VALID,353,VALID,0.446875,
2011-02-02, 03:11:04,VALID,1001.18,VALID,0,INVALID,163.632,VALID,0,VALID,25.2007,VALID,335,VALID,1.2332,
2011-02-02, 03:12:04,VALID,1001.2,VALID,0,INVALID,163.624,VALID,0,VALID,25.2007,VALID,340,VALID,1.28945,
2011-02-02, 03:13:04,VALID,1001.16,VALID,0,INVALID,163.594,VALID,0,VALID,25.2202,VALID,2,VALID,1.62969,
2011-02-02, 03:14:04,VALID,1001.16,VALID,0,INVALID,163.609,VALID,0,VALID,25.2183,VALID,337,VALID,1.50391,
2011-02-02, 03:15:04,VALID,1001.18,VALID,0,INVALID,163.609,VALID,0,VALID,25.2397,VALID,344,VALID,1.22422,
2011-02-02, 03:16:04,VALID,1001.14,VALID,0,INVALID,163.617,VALID,0,VALID,25.2397,VALID,347,VALID,1.53086,
2011-02-02, 03:17:04,VALID,1001.13,VALID,0,INVALID,163.594,VALID,0,VALID,25.2981,VALID,331,VALID,1.49297,
2011-02-02, 03:18:04,VALID,1001.13,VALID,0,INVALID,163.639,VALID,0.100563,VALID,25.339,VALID,351,VALID,0.939844,
2011-02-02, 03:19:04,VALID,1001.13,VALID,0,INVALID,163.617,VALID,0.100563,VALID,25.339,VALID,341,VALID,0.792969,
2011-02-02, 03:20:04,VALID,1001.13,VALID,0,INVALID,163.624,VALID,0,VALID,25.2981,VALID,330,VALID,1.02109,
2011-02-02, 03:21:04,VALID,1001.13,VALID,0,INVALID,163.617,VALID,0.100563,VALID,25.2981,VALID,348,VALID,1.09648,
2011-02-02, 03:22:04,VALID,1001.15,VALID,0,INVALID,163.586,VALID,0,VALID,25.2981,VALID,355,VALID,1.26172,
2011-02-02, 03:23:04,VALID,1001.14,VALID,0,INVALID,163.617,VALID,0.100563,VALID,25.3,VALID,352,VALID,1.13828,
2011-02-02, 03:24:04,VALID,1001.16,VALID,0,INVALID,163.624,VALID,0,VALID,25.3,VALID,354,VALID,1.51406,
2011-02-02, 03:25:04,VALID,1001.21,VALID,0,INVALID,163.594,VALID,0,VALID,25.2786,VALID,346,VALID,1.20977,
2011-02-02, 03:26:04,VALID,1001.2,VALID,0,INVALID,163.609,VALID,0,VALID,25.3,VALID,326,VALID,0.784766,
2011-02-02, 03:27:04,VALID,1001.23,VALID,0,INVALID,163.578,VALID,0,VALID,25.2806,VALID,352,VALID,1.23984,
2011-02-02, 03:28:04,VALID,1001.26,VALID,0,INVALID,163.632,VALID,0,VALID,25.3195,VALID,348,VALID,0.600781,
2011-02-02, 03:29:04,VALID,1001.28,VALID,0,INVALID,163.609,VALID,0,VALID,25.339,VALID,356,VALID,1.16992,
2011-02-02, 03:30:04,VALID,1001.27,VALID,0,INVALID,163.617,VALID,0,VALID,25.3195,VALID,355,VALID,1.03516,
2011-02-02, 03:31:04,VALID,1001.27,VALID,0,INVALID,163.601,VALID,0,VALID,25.339,VALID,352,VALID,0.838672,
2011-02-02, 03:32:04,VALID,1001.28,VALID,0,INVALID,163.624,VALID,0,VALID,25.2786,VALID,352,VALID,1.475,
2011-02-02, 03:33:04,VALID,1001.28,VALID,0,INVALID,163.617,VALID,0,VALID,25.2981,VALID,358,VALID,1.05508,
2011-02-02, 03:34:04,VALID,1001.3,VALID,0,INVALID,163.578,VALID,0,VALID,25.2981,VALID,358,VALID,1.27617,
2011-02-02, 03:35:04,VALID,1001.31,VALID,0,INVALID,163.624,VALID,0,VALID,25.2786,VALID,330,VALID,1.27109,
2011-02-02, 03:36:04,VALID,1001.27,VALID,0,INVALID,163.609,VALID,0,VALID,25.3,VALID,355,VALID,1.50469,
2011-02-02, 03:37:04,VALID,1001.27,VALID,0,INVALID,163.594,VALID,0,VALID,25.2981,VALID,343,VALID,1.70664,